WX1USN Weather Reports


Display with metric or nautical units.
time (UTC)temp
F
wind
direction
speed
MPH
gust
MPH
rain 1hr
in
rain 24hr
in
rain mn
in
humidity
%
barometer
mb
20260507040024 58 263 0.0 2.0 0.00 0.04 0.00 94 1006.5
20260507034508 58 251 0.0 3.0 0.00 0.04 0.04 94 1006.5
20260507033008 58 224 1.0 5.0 0.00 0.04 0.04 94 1006.5
20260507031508 58 202 1.0 9.0 0.00 0.04 0.04 94 1006.3
20260507030012 57 213 1.0 9.0 0.00 0.04 0.04 94 1006.2
20260507024508 57 261 2.0 7.0 0.00 0.04 0.04 94 1006.0
20260507021508 57 227 1.0 6.0 0.00 0.04 0.04 94 1006.1
20260507014507 57 225 2.0 10.0 0.00 0.04 0.04 94 1006.3
20260507013007 57 196 2.0 9.0 0.00 0.04 0.04 95 1006.5
20260507011507 57 190 2.0 5.0 0.00 0.04 0.04 95 1006.7
20260507010011 56 219 1.0 8.0 0.00 0.04 0.04 95 1006.8
20260507004508 56 272 2.0 8.0 0.00 0.04 0.04 94 1006.7
20260507003007 56 184 3.0 9.0 0.00 0.04 0.04 94 1006.5
20260507001506 56 217 3.0 9.0 0.00 0.04 0.04 94 1006.5
20260507000010 56 202 3.0 10.0 0.00 0.04 0.04 94 1006.5
20260506234513 56 229 3.0 10.0 0.00 0.04 0.04 94 1006.4
20260506233007 56 208 4.0 9.0 0.00 0.04 0.04 93 1006.4
20260506231507 56 204 3.0 11.0 0.01 0.04 0.04 93 1006.5
20260506224507 57 195 2.0 8.0 0.02 0.04 0.04 93 1006.5
20260506223007 57 225 2.0 7.0 0.02 0.04 0.04 93 1006.4
20260506221508 58 184 3.0 13.0 0.01 0.03 0.03 92 1006.8
20260506220011 58 231 3.0 7.0 0.01 0.03 0.03 91 1006.9
20260506214507 59 236 3.0 9.0 0.01 0.02 0.02 91 1006.9
20260506213008 59 257 3.0 11.0 0.01 0.02 0.02 90 1007.1
20260506211508 59 226 3.0 11.0 0.01 0.02 0.02 91 1007.3
20260506210010 59 209 3.0 9.0 0.02 0.02 0.02 90 1007.2
20260506204507 60 219 4.0 11.0 0.01 0.01 0.01 89 1007.4
20260506203007 60 198 2.0 8.0 0.01 0.01 0.01 87 1007.5
20260506201508 61 249 2.0 10.0 0.01 0.01 0.01 86 1007.6
20260506194508 62 211 3.0 7.0 0.00 0.00 0.00 80 1007.5
20260506193007 63 241 3.0 11.0 0.00 0.00 0.00 76 1007.7
20260506191507 65 202 4.0 12.0 0.00 0.00 0.00 73 1007.7
20260506190009 66 163 3.0 13.0 0.00 0.00 0.00 69 1007.6
20260506184507 66 121 5.0 17.0 0.00 0.00 0.00 69 1007.6
20260506183007 67 219 4.0 13.0 0.00 0.00 0.00 67 1007.8
20260506180009 68 192 5.0 14.0 0.00 0.00 0.00 65 1008.0
20260506174507 69 184 5.0 16.0 0.00 0.00 0.00 64 1008.2
20260506173007 69 199 4.0 16.0 0.00 0.00 0.00 64 1008.4
20260506171507 69 169 4.0 10.0 0.00 0.00 0.00 64 1008.2
20260506164508 68 198 4.0 15.0 0.00 0.00 0.00 66 1008.8
20260506163007 68 190 3.0 7.0 0.00 0.00 0.00 66 1008.9
20260506161507 68 219 4.0 16.0 0.00 0.00 0.00 65 1009.2
20260506160011 69 201 4.0 14.0 0.00 0.00 0.00 65 1009.4
20260506154508 69 217 4.0 11.0 0.00 0.00 0.00 65 1009.6
20260506153007 69 205 4.0 10.0 0.00 0.00 0.00 65 1009.9
20260506150008 68 196 5.0 10.0 0.00 0.00 0.00 65 1010.1
20260506144506 68 360 5.0 16.0 0.00 0.00 0.00 65 1009.9
20260506143006 69 202 2.0 9.0 0.00 0.00 0.00 66 1009.7
20260506141507 68 221 4.0 13.0 0.00 0.00 0.00 66 1009.8
20260506140008 67 228 4.0 12.0 0.00 0.00 0.00 69 1009.8
20260506133006 66 196 3.0 10.0 0.00 0.00 0.00 70 1010.3
20260506131508 65 186 3.0 10.0 0.00 0.00 0.00 73 1010.4
20260506130010 63 238 2.0 11.0 0.00 0.00 0.00 77 1010.5
20260506124505 62 232 2.0 10.0 0.00 0.00 0.00 78 1010.6
20260506123007 62 207 1.0 14.0 0.00 0.00 0.00 78 1010.5
20260506121508 61 191 4.0 11.0 0.00 0.00 0.00 80 1010.3
20260506114506 60 207 2.0 11.0 0.00 0.00 0.00 82 1010.9
20260506113006 60 238 1.0 5.0 0.00 0.00 0.00 83 1011.0
20260506111506 59 203 2.0 6.0 0.00 0.00 0.00 85 1010.8
20260506110011 58 211 1.0 4.0 0.00 0.00 0.00 86 1010.8
20260506104506 58 263 2.0 8.0 0.00 0.00 0.00 85 1010.9
20260506103006 58 202 3.0 9.0 0.00 0.00 0.00 85 1010.9
20260506101506 58 265 2.0 6.0 0.00 0.00 0.00 84 1010.8
20260506094506 58 219 2.0 9.0 0.00 0.00 0.00 83 1010.3
20260506093009 58 191 2.0 7.0 0.00 0.00 0.00 83 1010.5
20260506091506 58 213 3.0 8.0 0.00 0.00 0.00 83 1010.3
20260506090010 59 205 3.0 9.0 0.00 0.00 0.00 83 1010.4
20260506081506 59 259 2.0 9.0 0.00 0.00 0.00 81 1010.5
20260506073008 59 203 3.0 10.0 0.00 0.00 0.00 80 1010.4
20260506071506 59 207 2.0 8.0 0.00 0.00 0.00 80 1010.4
20260506061506 60 216 3.0 11.0 0.00 0.00 0.00 77 1010.3
20260506044508 61 360 4.0 10.0 0.00 0.00 0.00 72 1011.0
20260506043011 60 221 3.0 9.0 0.00 0.00 0.00 72 1011.0
20260506041508 60 207 4.0 10.0 0.00 0.00 0.00 72 1011.0